TimeEEST,TemperatureF,Dew PointF,Humidity,Sea Level PressureIn,VisibilityMPH,Wind Direction,Wind SpeedMPH,Gust SpeedMPH,PrecipitationIn,Events,Conditions,WindDirDegrees,DateUTC
12:20 AM,66.2,55.4,68,29.92,6.2,Variable,2.3,-,N/A,,Scattered Clouds,0,2012-10-13 21:20:00
12:50 AM,66.2,55.4,68,29.89,6.2,Variable,3.5,-,N/A,,Scattered Clouds,0,2012-10-13 21:50:00
1:50 AM,64.4,55.4,73,29.89,6.2,Variable,3.5,-,N/A,,Scattered Clouds,0,2012-10-13 22:50:00
2:20 AM,64.4,53.6,68,29.89,6.2,Variable,1.2,-,N/A,,Scattered Clouds,0,2012-10-13 23:20:00
3:00 AM,64,56,68,29.90,6,,2.3,,,,Partly Cloudy,,2012-10-14 00:00:00
3:20 AM,66.2,55.4,68,29.89,6.2,Calm,Calm,-,N/A,,Scattered Clouds,0,2012-10-14 00:20:00
3:50 AM,64.4,55.4,73,29.89,6.2,Calm,Calm,-,N/A,,Mostly Cloudy,0,2012-10-14 00:50:00
4:20 AM,64.4,55.4,73,29.86,6.2,Variable,3.5,-,N/A,,Mostly Cloudy,0,2012-10-14 01:20:00
5:20 AM,66.2,57.2,73,29.86,6.2,Variable,3.5,-,N/A,,Mostly Cloudy,0,2012-10-14 02:20:00
5:50 AM,69.8,60.8,73,29.86,6.2,Variable,3.5,-,N/A,,Mostly Cloudy,0,2012-10-14 02:50:00
6:20 AM,69.8,62.6,78,29.86,6.2,WNW,5.8,-,N/A,Rain,Light Rain,300,2012-10-14 03:20:00
6:50 AM,68.0,62.6,83,29.86,6.2,Variable,3.5,-,N/A,,Mostly Cloudy,0,2012-10-14 03:50:00
7:20 AM,68.0,62.6,83,29.86,6.2,Variable,3.5,-,N/A,,Mostly Cloudy,0,2012-10-14 04:20:00
7:50 AM,68.0,62.6,83,29.89,6.2,Variable,3.5,-,N/A,,Mostly Cloudy,0,2012-10-14 04:50:00
8:20 AM,66.2,60.8,83,29.89,6.2,Variable,3.5,-,N/A,,Mostly Cloudy,0,2012-10-14 05:20:00
8:50 AM,66.2,59.0,78,29.89,6.2,ESE,4.6,-,N/A,,Mostly Cloudy,120,2012-10-14 05:50:00
9:00 AM,66,60,74,29.89,6,ESE,4.6,,,,Partly Cloudy,120,2012-10-14 06:00:00
9:20 AM,68.0,60.8,78,29.89,6.2,ESE,3.5,-,N/A,,Mostly Cloudy,120,2012-10-14 06:20:00
9:50 AM,69.8,60.8,73,29.86,6.2,ESE,4.6,-,N/A,,Mostly Cloudy,110,2012-10-14 06:50:00
10:50 AM,77.0,60.8,57,29.89,6.2,Variable,3.5,-,N/A,,Mostly Cloudy,0,2012-10-14 07:50:00
11:20 AM,75.2,62.6,65,29.89,6.2,West,8.1,-,N/A,,Mostly Cloudy,280,2012-10-14 08:20:00
11:50 AM,73.4,62.6,69,29.89,6.2,WNW,11.5,-,N/A,,Mostly Cloudy,290,2012-10-14 08:50:00
12:20 PM,75.2,62.6,65,29.89,6.2,WNW,9.2,-,N/A,,Mostly Cloudy,290,2012-10-14 09:20:00
12:50 PM,75.2,62.6,65,29.86,6.2,NW,6.9,-,N/A,,Mostly Cloudy,320,2012-10-14 09:50:00
1:20 PM,75.2,62.6,65,29.86,6.2,NW,6.9,-,N/A,,Mostly Cloudy,310,2012-10-14 10:20:00
1:50 PM,75.2,64.4,69,29.86,6.2,NW,8.1,-,N/A,,Mostly Cloudy,310,2012-10-14 10:50:00
2:20 PM,75.2,64.4,69,29.86,6.2,NW,8.1,-,N/A,,Mostly Cloudy,310,2012-10-14 11:20:00
2:50 PM,75.2,66.2,73,29.86,6.2,NW,6.9,-,N/A,,Mostly Cloudy,310,2012-10-14 11:50:00
3:00 PM,75,65,65,29.86,6,NW,6.9,,,,Scattered Clouds,310,2012-10-14 12:00:00
3:20 PM,75.2,66.2,73,29.86,6.2,NW,6.9,-,N/A,,Mostly Cloudy,310,2012-10-14 12:20:00
3:50 PM,78.8,57.2,47,29.86,6.2,Variable,3.5,-,N/A,,Mostly Cloudy,0,2012-10-14 12:50:00
4:20 PM,78.8,57.2,47,29.83,6.2,South,8.1,-,N/A,,Mostly Cloudy,180,2012-10-14 13:20:00
4:50 PM,78.8,57.2,47,29.83,6.2,South,11.5,-,N/A,,Mostly Cloudy,180,2012-10-14 13:50:00
5:20 PM,77.0,57.2,50,29.80,6.2,South,11.5,-,N/A,,Mostly Cloudy,180,2012-10-14 14:20:00
5:50 PM,77.0,57.2,50,29.83,6.2,South,9.2,-,N/A,,Mostly Cloudy,180,2012-10-14 14:50:00
6:20 PM,75.2,57.2,53,29.83,6.2,South,9.2,-,N/A,,Mostly Cloudy,180,2012-10-14 15:20:00
6:50 PM,75.2,57.2,53,29.86,6.2,Variable,3.5,-,N/A,,Mostly Cloudy,0,2012-10-14 15:50:00
7:20 PM,75.2,57.2,53,29.86,6.2,Variable,3.5,-,N/A,,Mostly Cloudy,0,2012-10-14 16:20:00
7:50 PM,73.4,57.2,57,29.86,6.2,Variable,3.5,-,N/A,,Mostly Cloudy,0,2012-10-14 16:50:00
8:20 PM,73.4,57.2,57,29.86,6.2,Variable,3.5,-,N/A,,Mostly Cloudy,0,2012-10-14 17:20:00
8:50 PM,71.6,57.2,60,29.86,6.2,Variable,3.5,-,N/A,,Mostly Cloudy,0,2012-10-14 17:50:00
9:00 PM,72,58,52,29.86,6,,3.5,,,,Scattered Clouds,,2012-10-14 18:00:00
9:20 PM,71.6,57.2,60,29.86,6.2,ESE,4.6,-,N/A,,Mostly Cloudy,120,2012-10-14 18:20:00
9:50 PM,71.6,57.2,60,29.86,6.2,ESE,5.8,-,N/A,,Mostly Cloudy,110,2012-10-14 18:50:00
10:20 PM,71.6,57.2,60,29.86,6.2,ESE,9.2,-,N/A,,Mostly Cloudy,110,2012-10-14 19:20:00
10:50 PM,73.4,59.0,61,29.86,6.2,ESE,9.2,-,N/A,,Mostly Cloudy,120,2012-10-14 19:50:00
11:20 PM,73.4,59.0,61,29.86,6.2,ESE,4.6,-,N/A,,Mostly Cloudy,120,2012-10-14 20:20:00
11:50 PM,73.4,57.2,57,29.86,6.2,SE,8.1,-,N/A,,Mostly Cloudy,130,2012-10-14 20:50:00